Location: Brusselsch Zeekanaal
(50.8667°N, 4.3667°E)
Time: 01:04:19
(UTC+00:00)

Daily predictions for brighter satellites

Satellite Brightness Start Highest point End
(mag) Time Altitude Azimuth Time Altitude Azimuth Time Altitude Azimuth
CENTAUR R/B 4.4 02:05:13 29° NNE 02:05:13 29° NNE 02:10:16 10° NE
ACS3 Solar Sail 3.8 02:00:25 10° NE 02:03:45 22° ENE 02:03:45 22° ENE
Cosmos 2360 Rocket 4.4 02:17:23 20° ENE 02:17:23 20° ENE 02:19:27 10° NE
Cosmos 2322 Rocket 4.4 02:17:43 20° NE 02:17:43 20° NE 02:19:42 10° NE
SL-16 R/B 4.4 02:24:11 20° NE 02:24:11 20° NE 02:25:53 10° NE
Cosmos 1943 Rocket 4.5 02:24:44 18° NE 02:24:44 18° NE 02:28:19 10° ENE
ADEOS Rocket 4.0 02:33:05 10° NNE 02:38:45 47° E 02:38:45 47° E
BREEZE-M DEB (TANK) 4.5 02:53:28 73° S 02:53:28 73° S 03:13:25 10° ESE
Cosmos 2219 Rocket 3.6 02:55:05 35° E 02:55:05 35° E 02:59:16 10° NE
CZ-2D R/B 4.4 03:13:30 10° N 03:14:23 15° N 03:14:23 15° N
USA 267 3.4 03:13:39 10° ENE 03:20:10 65° SE 03:20:18 65° SSE
Cosmos 1980 Rocket 4.3 03:27:56 16° N 03:27:56 16° N 03:29:43 10° NNE
H-2A R/B 3.7 03:26:14 10° NNE 03:28:05 23° N 03:28:05 23° N
Cosmos 2278 Rocket 3.5 03:29:48 25° N 03:32:18 37° NE 03:37:31 10° ESE
USA 238 DEB 4.0 03:33:04 51° NNW 03:33:04 51° NNW 03:39:11 10° NE
USA 238 4.0 03:33:10 51° NNW 03:33:10 51° NNW 03:39:18 10° NE
Cosmos 2333 Rocket 3.0 03:39:30 41° N 03:39:30 41° N 03:43:27 10° NNE
ADEOS II 4.0 03:38:31 10° N 03:39:55 18° N 03:39:55 18° N
COSMOS 2455 3.0 03:45:06 61° NNW 03:45:06 61° NNW 03:50:26 10° NE
Lacrosse 5 rocket 3.6 03:46:58 17° NE 03:46:58 17° NE 03:47:54 10° NE
Cosmos 1153 Rocket 4.4 03:39:08 10° N 03:45:20 87° E 03:51:34 10° S
Cosmos 2298 Rocket 4.1 03:46:57 73° NE 03:46:57 73° NE 03:51:49 10° NNE
ACS3 Solar Sail 1.8 03:42:45 10° N 03:47:54 61° NNW 03:47:54 61° NNW
BlueWalker 3 4.0 03:53:51 21° SE 03:53:51 21° SE 03:55:12 10° ESE
Resurs 1-4 Rocket 4.3 03:47:27 10° N 03:48:13 13° N 03:48:13 13° N
CENTAUR R/B 4.1 03:52:18 24° NNW 03:55:49 35° NNE 04:03:41 10° ENE
Cosmos 2360 Rocket 2.6 03:59:08 48° NNW 03:59:08 48° NNW 04:03:48 10° NNE
USA 234 3.2 03:51:58 10° SE 03:58:25 58° SW 03:58:53 56° WSW
Cosmos 2322 Rocket 2.8 03:59:32 43° NNW 03:59:32 43° NNW 04:04:00 10° NNE
Gbstr 26 Del rocket 4.4 03:59:15 34° S 04:00:22 38° SE 04:05:39 10° ENE
SL-16 R/B 3.4 04:06:02 28° NNW 04:06:02 28° NNW 04:09:47 10° NNE
Cosmos 44 Rocket 3.2 04:05:02 84° WNW 04:05:14 88° SW 04:10:23 10° SE
Cosmos 1943 Rocket 2.5 04:06:17 25° NNW 04:09:28 63° NE 04:14:56 10° SE
H-2A R/B 3.8 04:08:11 10° NNE 04:11:15 53° NE 04:11:15 53° NE
Okean 1-7 3.2 04:13:10 58° N 04:13:10 58° N 04:16:37 10° N
Meteor 2-14 Rocket 4.4 04:06:15 10° S 04:12:22 86° E 04:18:29 10° N
Cosmos 1862 Rocket 4.5 04:15:09 36° N 04:15:09 36° N 04:17:46 10° N
ARGOS 3.0 04:09:09 10° NNE 04:14:34 74° WNW 04:16:18 44° SW
NOSS 2-1 (C) 4.1 04:14:58 38° ESE 04:14:58 38° ESE 04:17:40 10° ENE
PAYLOAD A 4.1 04:09:57 10° NNE 04:15:25 87° ESE 04:20:29 11° SSW
Cosmos 1908 Rocket 4.0 04:11:18 10° N 04:15:44 61° ENE 04:20:06 10° SSE
Cosmos 1140 Rocket 3.3 04:15:56 44° NNW 04:17:37 85° WSW 04:22:43 10° SSE
NOSS 2-1 (D) 3.8 04:19:05 43° ESE 04:19:05 43° ESE 04:21:45 10° NE
Timation 2 Rocket 4.0 04:14:48 22° NNW 04:19:26 89° WSW 04:25:53 10° SSE
CZ-2C R/B 2.3 04:14:57 10° NNE 04:19:55 74° WNW 04:21:32 43° SW
Cosmos 1809 Rocket 4.3 04:18:13 10° SSW 04:24:19 76° WNW 04:30:26 10° N
ADEOS Rocket 3.6 04:18:51 10° N 04:24:48 42° WNW 04:25:40 40° W
NOSS 3-1 (C) 3.1 04:27:25 31° SSW 04:29:43 73° SE 04:35:31 10° NE
Iridium 4 Rocket 3.7 04:26:45 10° N 04:31:06 55° E 04:35:11 10° SSE
Cosmos 2100 Rocket 3.8 04:25:21 10° NNW 04:31:27 69° W 04:37:33 10° S
SJ 16-02 3.5 04:28:03 10° N 04:31:32 23° NE 04:34:59 10° ESE
Cosmos 2219 Rocket 2.5 04:36:50 41° W 04:37:57 46° NW 04:43:25 10° NNE
IRS-1D 3.9 04:35:01 10° NNE 04:39:58 61° ESE 04:44:51 10° S
SL-24 R/B - RUBIN 2 4.0 04:39:23 42° W 04:40:51 58° NW 04:45:39 10° NE
Cosmos 1707 Rocket 4.3 04:42:43 34° NW 04:42:43 34° NW 04:45:47 10° N
TIMED 4.3 04:40:17 42° NW 04:41:37 70° WSW 04:45:51 10° SSE
NOSS 0 Rocket 4.4 04:38:16 10° SSW 04:44:17 62° ESE 04:50:22 10° NE
COSMOS 2428 2.6 04:42:00 10° SSW 04:47:42 88° WNW 04:53:26 10° NNE
USA 59 Rocket -1.0 04:50:47 68° WSW 04:51:06 79° NW 04:54:04 10° NE
SL-08 RB Rocket 3.9 04:47:08 10° N 04:51:29 45° WNW 04:53:29 28° SW
Cosmos 1459 Rocket 4.1 04:46:26 10° NNW 04:52:38 55° W 04:58:46 10° SSW
Cosmos 1864 Rocket 4.4 04:47:20 10° NNW 04:53:35 70° W 04:59:51 10° S
Cosmos 2322 3.6 04:50:01 13° SW 04:55:11 70° WNW 05:00:53 10° NNE
FengYun 1-2 T 4.1 04:50:57 10° NNE 04:56:32 80° WNW 05:02:06 10° SSW
COSMO-SKYMED 1 2.4 04:55:08 10° SSE 04:59:15 84° ENE 05:03:24 10° NNW
Cosmos 407 Rocket 3.3 04:54:47 12° NNW 04:59:33 73° WSW 05:04:38 10° SSE
Meteor 2-21 4.4 04:54:02 10° SSW 05:00:01 57° WNW 05:06:01 10° N
SKYMED 2 3.5 04:56:15 10° S 05:00:35 71° WSW 05:04:57 10° NNW
Cosmos 1484 Rocket 4.4 04:59:15 10° NNE 05:02:30 33° E 05:05:44 10° SSE
Cosmos 1727 Rocket 4.3 04:56:51 10° SW 05:02:41 42° WNW 05:08:35 10° N
Cosmos 1725 Rocket 4.0 04:56:51 10° NNW 05:03:07 66° W 05:09:21 10° S
USA 267 3.3 04:56:46 10° ENE 05:03:14 65° NNW 05:07:38 22° W
Cosmos 2228 Rocket 3.7 05:03:29 31° WNW 05:03:47 31° WNW 05:07:44 10° N
Cosmos 1980 4.1 05:01:54 10° SSW 05:07:29 66° ESE 05:13:07 10° NE
H-2A R/B 3.8 05:07:03 10° NNW 05:08:34 14° NW 05:08:34 14° NW
Cosmos 1802 Rocket 4.1 05:04:47 10° NNW 05:10:58 53° W 05:17:02 10° SSW
Cosmos 1656 Rocket 4.4 05:07:00 10° NNW 05:12:35 53° NE 05:18:08 10° SE
NOSS 3-1 (A) 3.3 05:09:11 10° SSW 05:13:53 67° SE 05:19:39 10° NE
Cosmos 2233 Rocket 3.9 05:08:02 10° NNW 05:14:22 77° W 05:20:38 10° S
Cosmos 2278 Rocket 2.4 05:11:40 13° NW 05:16:32 49° WSW 05:21:56 10° S
Cosmos 1328 4.0 05:13:23 10° SW 05:16:48 37° WNW 05:20:14 10° N
Cosmos 1703 Rocket 3.7 05:13:58 10° SSW 05:18:11 50° WNW 05:22:29 10° N
Cosmos 2251 Rocket 3.5 05:13:01 10° NNW 05:18:25 87° WSW 05:23:47 10° SSE
Cosmos 304 Rocket 4.5 05:14:04 10° NNW 05:18:45 54° ENE 05:23:25 10° SE
Cosmos 1939 Rocket 3.5 05:17:23 10° N 05:20:46 29° WNW 05:23:41 13° SW
CZ-3 R/B 4.3 05:19:27 10° SSW 05:20:47 10° S 05:21:59 10° S
NOSS 2-1 (E) 2.8 05:18:52 21° WSW 05:20:56 56° NW 05:23:56 10° NE
Lacrosse 5 rocket 2.1 05:20:39 21° NW 05:22:04 28° N 05:25:02 10° ENE
Meteor 2-16 Rocket 4.4 05:16:35 10° SSW 05:22:35 62° WNW 05:28:42 10° N
Cosmos 2333 Rocket 3.8 05:21:32 15° NW 05:23:23 18° NNW 05:27:12 10° NNE
USA-17 4.3 05:22:08 25° WNW 05:23:42 56° SW 05:26:58 10° SSE
Cosmos 2237 Rocket 2.3 05:18:05 10° SSW 05:23:45 80° ESE 05:29:26 10° NNE
Cosmos 2292 Rocket 3.8 05:24:23 10° SSW 05:28:38 60° WNW 05:34:12 10° N
BlueWalker 3 3.6 05:27:40 15° WSW 05:28:40 17° SW 05:31:04 10° S
ACS3 Solar Sail 3.2 05:27:15 10° NNW 05:30:43 16° NW 05:32:02 15° WNW
COSMOS 2455 4.1 05:28:15 16° WNW 05:31:27 24° NNW 05:36:17 10° NNE
Meteor 1-24 Rocket 4.0 05:27:56 10° SW 05:33:26 45° WNW 05:38:46 10° N
Helios 1A Rocket 3.4 05:30:52 10° SSW 05:33:48 27° W 05:36:22 12° NW
Cosmos 2369 Rocket 3.2 05:28:56 10° NNW 05:34:23 45° NE 05:39:49 10° ESE
Cosmos 2242 Rocket 4.2 05:30:23 10° S 05:34:41 61° E 05:39:02 10° NNE
CZ-4 R/B 4.0 05:30:32 10° N 05:35:19 51° WNW 05:39:59 10° SW
Cosmos 1782 Rocket 4.0 05:33:22 10° NNW 05:37:31 40° W 05:41:37 10° SSW
Cosmos 2360 Rocket 3.8 05:40:55 13° WNW 05:43:34 17° NNW 05:47:08 10° N
Cosmos 2322 Rocket 3.9 05:41:20 12° WNW 05:43:58 16° NNW 05:47:21 10° N
Cosmos 2123 Rocket 4.4 05:38:27 10° SW 05:44:12 39° WNW 05:49:59 10° N
NOAA 12 4.3 05:39:25 10° N 05:44:35 52° WNW 05:49:43 10° SW
Meteor 2-5 Rocket 4.2 05:39:04 10° SW 05:44:39 42° WNW 05:50:12 10° N
Cosmos 1420 Rocket 4.0 05:40:36 10° SSW 05:45:53 90° WNW 05:51:14 10° NNE
Gbstr 26 Del rocket 3.7 05:41:21 10° WSW 05:46:31 88° SSE 05:52:56 10° ENE
CENTAUR R/B 3.6 05:40:05 10° NW 05:47:56 65° NE 05:57:09 10° ESE
ARIANE 5 R/B 4.2 05:45:22 10° NNE 05:50:05 39° E 05:54:50 10° SSE
SL-16 R/B 4.1 05:48:44 10° NW 05:50:50 12° NNW 05:52:57 10° N
Cosmos 1943 Rocket 3.2 05:48:18 10° NW 05:52:46 25° WSW 05:57:11 10° SSW
Cosmos 1812 1.9 05:53:40 10° NNW 05:56:37 75° W 05:59:32 10° S
CZ-2C R/B 4.1 05:54:34 10° NNW 05:57:11 14° NW 05:59:50 10° W
SMAP 3.9 05:54:23 10° NNE 05:59:00 57° E 06:03:34 10° S
CZ-2D R/B 4.1 05:58:37 10° NNE 06:01:43 45° E 06:04:45 10° S
Cosmos 2346 Rocket 4.5 05:56:41 10° SSW 06:02:46 63° WNW 06:08:50 10° N
NOSS 2-1 (C) 4.0 06:01:06 10° W 06:03:45 23° NNW 06:06:13 10° NNE
Cosmos 1025 Rocket 4.4 06:02:43 10° SSE 06:06:50 44° E 06:10:59 10° NNE
NOSS 2-1 (D) 4.1 06:05:17 10° W 06:07:47 21° NNW 06:10:08 10° NNE
SJ 16-02 1.5 06:05:46 10° NNW 06:09:56 50° WSW 06:14:05 10° S
Iridium 4 Rocket 4.5 06:07:33 10° NW 06:10:21 17° WNW 06:13:03 10° WSW
Aureole 3 Rocket 3.6 06:06:52 10° NNW 06:10:54 50° W 06:16:24 10° S
Okean 1 Rocket 3.7 06:06:56 10° N 06:11:16 60° ENE 06:15:31 10° SSE
CBERS-1 4.0 06:09:39 10° N 06:14:45 68° WNW 06:19:49 10° SSW
